Location: Linz
(48.3300°N, 14.3000°E)
Time: 22:57:22
(UTC+01:00)

OTV 5 (USA 277) - Pass Details

Date: 12 November 2017
Orbit: 404 x 417 km, 43.0° (Epoch: 07 September)

Event Time Altitude Azimuth Distance (km) Brightness Sun altitude
Exits shadow 05:06:45 23° 186° (S) 920 ? -19.8°
Maximum altitude 05:07:25 24° 166° (SSE) 875 ? -19.6°
Drops below altitude 10° 05:10:09 10° 109° (ESE) 1,456 ? -19.2°
Sets 05:12:29 0° 96° (E) 2,318 ? -18.8°
